Weather in Nurinsk

Russia / Zabaykalsky Krai     51°04′59″N   115°39′53″E
temp.,
°C
wind,
m/s
gust,
m/s
humid.,
%
clouds,
%
prec.,
mm/h
press.,
hPa
HPBL,
m
6 december, mon
mon600:00−9wnw816744 0.0 1025567
03:00−10wnw614784 0.0 1027436
06:00−13wsw37915 0.0 102899
09:00−14ssw23915 0.0 102829
12:00−9s36775 0.0 1026171
15:00−6s35765 0.0 1022146
18:00−10s33875 0.0 102320
21:00−11s33875 0.0 102322
7 december, tue
tue700:00−12sse32875 0.0 102423
03:00−12sse33855 0.0 102425
06:00−13sse328725 0.0 102519
09:00−12sse228556 0.0 102615
12:00−6s226817 0.0 102545
15:00−5s33710 0.0 102559
18:00−10sse32822 0.0 102717
21:00−10sse32812 0.0 102718
8 december, wed
wed800:00−11se32825 0.0 102721
03:00−12se328449 0.0 102621
06:00−12se32835 0.0 102421
09:00−12se328368 0.0 102324
12:00−8sse35775 0.0 1020190
15:00−8se247992 0.0 1017200
18:00−13se1190100 0.0 101910
21:00−13s119097 0.0 10199
9 december, thu
thu900:00−12w2292100 0.0 102021
03:00−12wnw119010 0.0 102113
06:00−9nw714720 0.0 1022411
09:00−11nw615700 0.0 1026417
12:00−10nw713660 0.0 1028567
15:00−9nw611650 0.0 1029604
18:00−14w22831 0.0 103311
21:00−15sw12865 0.0 10369
10 december, fri
fri1000:00−16ssw22864 0.0 103711
03:00−17s228832 0.0 103812
06:00−18s22915 0.0 103913
09:00−18s228912 0.0 103917
12:00−13ssw22705 0.0 103873
15:00−11ssw117047 0.0 103668
18:00−16sse228673 0.0 103710
21:00−17s228772 0.0 103710